[Iaude] MPEC T69: 2023 TX1 [a=1.39,e=0.20,i=12.1,H=25.1]

mpec at marsden.cfa.harvard.edu mpec at marsden.cfa.harvard.edu
Sat Oct 7 02:05:22 EDT 2023


M.P.E.C. 2023-T69                               Issued 2023 October 7, 06:03 UT

     The Minor Planet Electronic Circulars contain information on unusual
         minor planets, routine data on comets and natural satellites,
         and occasional editorial announcements.  They are published
    on behalf of Division F of the International Astronomical Union by the
          Minor Planet Center, Smithsonian Astrophysical Observatory,
                          Cambridge, MA 02138, U.S.A.
			  
             Prepared using the Tamkin Foundation Computer Network

                              MPC at CFA.HARVARD.EDU
            URL https://www.minorplanetcenter.net/    ISSN 1523-6714

                                    2023 TX1                                    


Observations:
     K23T01X*1C2023 10 05.19409723 37 31.112+12 25 22.69         21.68GVET069G96
     K23T01X 1C2023 10 05.19979223 37 32.164+12 24 51.70         21.62GVET069G96
     K23T01X 1C2023 10 05.20546423 37 33.222+12 24 20.63         21.06GVET069G96
     K23T01X 1C2023 10 05.21113023 37 34.302+12 23 49.74         21.97GVET069G96
     K23T01X KC2023 10 05.30563023 37 51.395+12 15 11.16         21.89GVET069I52
     K23T01X KC2023 10 05.30861223 37 51.978+12 14 54.46         21.31GVET069I52
     K23T01X KC2023 10 05.31160223 37 52.500+12 14 38.44         21.06GVET069I52
     K23T01X KC2023 10 05.31459223 37 53.054+12 14 21.70         20.85GVET069I52
     K23T01X  C2023 10 05.34825423 37 59.126+12 11 13.40         21.9 GVET069H01
     K23T01X  C2023 10 05.35175823 37 59.780+12 10 54.03         21.4 GVET069H01
     K23T01X  C2023 10 05.36489823 38 02.275+12 09 41.08         21.2 GVET069H01
     K23T01X  C2023 10 05.37019923 38 03.269+12 09 11.79         21.2 GVET069H01
     K23T01X  C2023 10 06.17866423 40 56.012+10 54 57.21         21.2 GVET069H01
     K23T01X  C2023 10 06.18539423 40 57.262+10 54 20.21         21.4 GVET069H01
     K23T01X  C2023 10 06.19565323 40 59.152+10 53 23.61         21.2 GVET069H01
     K23T01X KC2023 10 06.19979323 40 59.83 +10 52 59.6          21.7 GXET069858
     K23T01X  C2023 10 06.20086023 41 00.110+10 52 55.06         21.3 GVET069H01
     K23T01X KC2023 10 06.21012123 41 01.73 +10 52 02.7          21.7 GXET069858
     K23T01X KC2023 10 07.14403323 44 17.30 +09 25 33.3          20.9 VuET069H21
     K23T01X KC2023 10 07.14963123 44 18.36 +09 25 02.5          21.4 VuET069H21

Observer details:
858 Tebbutt Observatory, Edgewood.  Observer F. B. Zoltowski.  0.51-m f/8.1
    Schmidt-Cassegrain + CCD.
G96 Mt. Lemmon Survey.  Observer G. J. Leonard.  Measurers E. C. Beshore, D.
    Fay, J. B. Fazekas, D. C. Fuls, A. R. Gibbs, A. D. Grauer, H. Groeller, J.
    K. Hogan, R. A. Kowalski, S. M. Larson, G. J. Leonard, D. Rankin, R. L.
    Seaman, F. C. Shelly, K. W. Wierzchos.  1.5-m reflector + 10K CCD.
H01 Magdalena Ridge Observatory, Socorro.  Observers W. H. Ryan, E. V. Ryan.
    Measurer W. H. Ryan.  2.4-m f/8.9 Ritchey-Chretien + CCD.
H21 Astronomical Research Observatory, Westfield.  Observer R. Holmes.
    Measurers T. Linder, R. Holmes, L. Horn.  0.76-m f/3.0 astrograph + CCD.
I52 Steward Observatory, Mt. Lemmon Station.  Observer D. Rankin.  Measurers
    E. C. Beshore, D. Fay, J. B. Fazekas, D. C. Fuls, A. R. Gibbs, A. D.
    Grauer, H. Groeller, J. K. Hogan, R. A. Kowalski, S. M. Larson, G. J.
    Leonard, D. Rankin, R. L. Seaman, F. C. Shelly, K. W. Wierzchos.  1.0-m
    prime focus + CCD.

Orbital elements:
2023 TX1                                                 Earth MOID = 0.1186 AU
Epoch 2023 Sept. 13.0 TT = JDT 2460200.5                Veres                   
M 344.31008              (2000.0)            P               Q                  
n   0.59961370     Peri.  176.52604     +0.97151413     -0.22884214             
a   1.3927987      Node   197.08651     +0.21206261     +0.95548027             
e   0.1975829      Incl.   12.09734     +0.10578161     +0.18624909             
P   1.64           H   25.12          G   0.15           U   8                  
Residuals in seconds of arc
231005 G96  0.2-  0.0     231005 I52  0.3-  0.2-    231006 H01  0.1-  0.1-
231005 G96  0.0   0.1+    231005 H01  0.1+  0.2-    231006 858  0.2-  0.1-
231005 G96  0.3+  0.0     231005 H01  0.1+  0.2-    231006 H01  0.1-  0.0
231005 G96  0.9+  0.0     231005 H01  0.4+  0.3-    231006 858  0.2-  0.0
231005 I52  0.5-  0.1-    231005 H01  0.2+  0.2-    231007 H21  0.0   0.1+
231005 I52  0.0   0.4-    231006 H01  0.1-  0.1-    231007 H21  0.3+  0.4+
231005 I52  0.4-  0.1+    231006 H01  0.0   0.0

Ephemeris:
2023 TX1                 a,e,i = 1.39, 0.20, 12                  q = 1.1176
Date    TT    R. A. (2000) Decl.     Delta      r    Elong.  Phase     V
2023 09 07    22 22 24.7 +39 03 53   0.1817  1.1411   133.7    39.7    23.3
...
2023 09 22    22 55 34.9 +29 27 21   0.1408  1.1244   146.8    29.3    22.4
...
2023 09 30    23 19 56.8 +19 59 01   0.1271  1.1196   156.7    20.7    21.9
...
2023 10 06    23 40 17.0 +11 11 58   0.1227  1.1178   162.8    15.3    21.7
2023 10 07    23 43 45.9 +09 39 35   0.1226  1.1177   163.4    14.8    21.6
2023 10 08    23 47 15.6 +08 06 45   0.1226  1.1176   163.7    14.5    21.6
...
2023 10 14    00 08 17.0 -00 59 18   0.1263  1.1181   161.4    16.6    21.8
...
2023 10 22    00 35 22.9 -11 15 49   0.1403  1.1214   152.1    24.5    22.2
...
2023 11 06    01 19 21.9 -22 06 40   0.1867  1.1353   137.1    36.5    23.2

M. P. C. Staff               (C) Copyright 2023 MPC           M.P.E.C. 2023-T69





More information about the Iaude mailing list